Location: Unspecified
(50.7693°N, 0.0000°E)
Time: 16:20:20
(UTC+00:00)

A-11 Canister half - Pass Details

Date: 25 June 2019
Orbit: 1526 x 1683 km, 47.3° (Epoch: 21 August)

Event Time Altitude Azimuth Distance (km) Brightness Sun altitude
Exits shadow 01:45:39 - 170° (S) 4,047 10.7 -12.4°
Reaches altitude 10° 01:47:04 10° 164° (SSE) 3,768 10.6 -12.3°
Maximum altitude 01:52:29 17° 128° (SE) 3,226 10.6 -12.0°
Drops below altitude 10° 01:57:50 10° 93° (E) 3,720 11.3 -11.6°
Sets 02:02:16 0° 74° (ENE) 4,692 12.2 -11.3°
